Weather History for Morris, MN

Change the Weather History Date:

Wednesday, November 20, 2013

  Actual Average Record
Temperature  
Mean Temperature 37 °F -  
Max Temperature 50 °F 33 °F 55 °F (2001)
Min Temperature 24 °F 18 °F -2 °F (2011)
Degree Days  
Heating Degree Days 28    
Moisture  
Dew Point 29 °F    
Average Humidity 67    
Maximum Humidity 93    
Minimum Humidity 50    
Precipitation  
Precipitation 0.00 in - - ()
Sea Level Pressure  
Sea Level Pressure 29.82 in    
Wind  
Wind Speed 14 mph (WSW)    
Max Wind Speed 23 mph    
Max Gust Speed 31 mph    
Visibility 10 miles    
Events      
Averages and records for this station are not official NWS values.
T = Trace of Precipitation, MM = Missing Value Source: NWS Daily Summary

Daily Weather History Graph

Daily Weather History Graph

Search for Another Location

Airport:

Trip Planner

Search our weather history database for the weather conditions in past years. The results will help you decide how hot, cold, wet, or windy it might be!

Date:

Astronomy

Nov. 20, 2013 Rise Set
Actual Time 7:30 AM CST 4:48 PM CST
Civil Twilight 6:57 AM CST 5:21 PM CST
Nautical Twilight 6:21 AM CST 5:57 PM CST
Astronomical Twilight 5:46 AM CST 6:32 PM CST
Moon 7:32 PM CST (11/20) 9:56 AM CST (11/20)
Length of Visible Light 10h 23m
Length of Day
9h 18m
Waning Gibbous, 91% of the Moon is Illuminated
Nov 20
Waning Gibbous
Nov 25
Last Quarter
Dec 2
New
Dec 9
First Quarter
Dec 17
Full

Hourly Weather History & Observations

Time (CST) Temp. Windchill Dew Point Humidity Pressure Visibility Wind Dir Wind Speed Gust Speed Precip Events Conditions
12:04 AM 46.4 °F 39.0 °F 30.2 °F 53% 29.68 in 10.0 mi SSE 19.6 mph - N/A   Clear
12:24 AM 46.4 °F 39.0 °F 30.2 °F 53% 29.68 in 10.0 mi SSE 19.6 mph - N/A   Clear
12:44 AM 46.4 °F 39.8 °F 30.2 °F 53% 29.69 in 10.0 mi South 16.1 mph - N/A   Clear
1:04 AM 46.4 °F 39.0 °F 30.2 °F 53% 29.68 in 10.0 mi South 19.6 mph 23.0 mph N/A   Clear
1:24 AM 46.4 °F 39.5 °F 30.2 °F 53% 29.69 in 10.0 mi SSE 17.3 mph 23.0 mph N/A   Clear
1:44 AM 46.4 °F 39.5 °F 30.2 °F 53% 29.70 in 10.0 mi SSE 17.3 mph 20.7 mph N/A   Clear
2:04 AM 46.4 °F 39.2 °F 30.2 °F 53% 29.70 in 10.0 mi South 18.4 mph - N/A   Clear
2:24 AM 46.4 °F 39.2 °F 30.2 °F 53% 29.70 in 10.0 mi South 18.4 mph - N/A   Clear
2:44 AM 46.4 °F 39.8 °F 30.2 °F 53% 29.71 in 10.0 mi South 16.1 mph - N/A   Clear
3:04 AM 46.4 °F 40.7 °F 30.2 °F 53% 29.72 in 10.0 mi SSE 12.7 mph - N/A   Clear
3:24 AM 46.4 °F 40.1 °F 30.2 °F 53% 29.72 in 10.0 mi SSE 15.0 mph - N/A   Clear
3:44 AM 44.6 °F 38.8 °F 30.2 °F 57% 29.72 in 10.0 mi SSE 11.5 mph - N/A   Clear
4:04 AM 42.8 °F 36.6 °F 30.2 °F 61% 29.71 in 10.0 mi SE 11.5 mph - N/A   Clear
4:24 AM 42.8 °F 37.5 °F 30.2 °F 61% 29.73 in 10.0 mi SE 9.2 mph - N/A   Clear
4:44 AM 42.8 °F 35.4 °F 30.2 °F 61% 29.72 in 10.0 mi SE 15.0 mph - N/A   Clear
5:04 AM 42.8 °F 35.8 °F 30.2 °F 61% 29.72 in 10.0 mi SE 13.8 mph - N/A   Clear
5:24 AM 42.8 °F 36.6 °F 30.2 °F 61% 29.73 in 10.0 mi SE 11.5 mph - N/A   Clear
5:44 AM 41.0 °F 34.7 °F 30.2 °F 65% 29.73 in 10.0 mi SE 10.4 mph - N/A   Clear
6:04 AM 41.0 °F 34.7 °F 30.2 °F 65% 29.74 in 10.0 mi SE 10.4 mph - N/A   Clear
6:24 AM 39.2 °F 33.0 °F 30.2 °F 70% 29.74 in 10.0 mi SE 9.2 mph - N/A   Clear
6:44 AM 39.2 °F 32.5 °F 30.2 °F 70% 29.75 in 10.0 mi SE 10.4 mph - N/A   Clear
7:04 AM 39.2 °F 32.5 °F 30.2 °F 70% 29.75 in 10.0 mi SSE 10.4 mph - N/A   Scattered Clouds
7:24 AM 39.2 °F 33.0 °F 30.2 °F 70% 29.76 in 10.0 mi SSE 9.2 mph - N/A   Clear
7:44 AM 39.2 °F 32.5 °F 30.2 °F 70% 29.76 in 10.0 mi SSE 10.4 mph - N/A   Clear
8:04 AM 39.2 °F 33.6 °F 30.2 °F 70% 29.77 in 10.0 mi SE 8.1 mph - N/A   Clear
8:24 AM 39.2 °F 33.0 °F 30.2 °F 70% 29.77 in 10.0 mi SE 9.2 mph - N/A   Clear
8:44 AM 39.2 °F 33.0 °F 30.2 °F 70% 29.79 in 10.0 mi SSE 9.2 mph - N/A   Clear
9:04 AM 39.2 °F 33.6 °F 30.2 °F 70% 29.79 in 10.0 mi SSE 8.1 mph - N/A   Clear
9:24 AM 42.8 °F 36.6 °F 30.2 °F 61% 29.79 in 10.0 mi SSE 11.5 mph - N/A   Clear
9:44 AM 44.6 °F 38.8 °F 30.2 °F 57% 29.79 in 10.0 mi South 11.5 mph - N/A   Clear
10:04 AM 44.6 °F 38.4 °F 30.2 °F 57% 29.80 in 10.0 mi SSE 12.7 mph - N/A   Clear
10:24 AM 46.4 °F 41.5 °F 30.2 °F 53% 29.80 in 10.0 mi SSE 10.4 mph - N/A   Clear
10:44 AM 46.4 °F 40.7 °F 30.2 °F 53% 29.81 in 10.0 mi South 12.7 mph - N/A   Clear
11:04 AM 46.4 °F 42.4 °F 30.2 °F 53% 29.81 in 10.0 mi South 8.1 mph - N/A   Clear
11:24 AM 48.2 °F - 30.2 °F 50% 29.80 in 10.0 mi South 6.9 mph - N/A   Clear
11:44 AM 48.2 °F - 30.2 °F 50% 29.80 in 10.0 mi SW 6.9 mph - N/A   Clear
12:04 PM 48.2 °F - 32.0 °F 54% 29.80 in 10.0 mi West 4.6 mph - N/A   Clear
12:24 PM 48.2 °F - 32.0 °F 54% 29.80 in 10.0 mi West 5.8 mph - N/A   Clear
12:44 PM 50.0 °F - 32.0 °F 50% 29.79 in 10.0 mi West 3.5 mph - N/A   Clear
1:04 PM 50.0 °F - 32.0 °F 50% 29.79 in 10.0 mi WNW 6.9 mph - N/A   Clear
1:24 PM 50.0 °F - 32.0 °F 50% 29.79 in 10.0 mi WNW 6.9 mph - N/A   Clear
1:44 PM 48.2 °F - 33.8 °F 58% 29.80 in 10.0 mi WNW 11.5 mph - N/A   Clear
2:04 PM 46.4 °F 41.9 °F 33.8 °F 62% 29.80 in 10.0 mi NW 9.2 mph - N/A   Clear
2:24 PM 46.4 °F 41.1 °F 33.8 °F 62% 29.81 in 10.0 mi NW 11.5 mph - N/A   Clear
2:44 PM 46.4 °F 40.7 °F 33.8 °F 62% 29.81 in 10.0 mi NW 12.7 mph - N/A   Clear
3:04 PM 44.6 °F 38.4 °F 32.0 °F 61% 29.81 in 10.0 mi NW 12.7 mph - N/A   Clear
3:24 PM 44.6 °F 38.8 °F 32.0 °F 61% 29.81 in 10.0 mi NW 11.5 mph - N/A   Clear
3:44 PM 42.8 °F 36.2 °F 32.0 °F 66% 29.82 in 10.0 mi NW 12.7 mph - N/A   Clear
4:04 PM 41.0 °F 33.1 °F 30.2 °F 65% 29.82 in 10.0 mi NW 15.0 mph - N/A   Clear
4:24 PM 39.2 °F 32.0 °F 30.2 °F 70% 29.84 in 10.0 mi NW 11.5 mph - N/A   Clear
4:44 PM 37.4 °F 30.8 °F 30.2 °F 75% 29.85 in 10.0 mi NW 9.2 mph - N/A   Clear
5:04 PM 37.4 °F 30.3 °F 30.2 °F 75% 29.86 in 10.0 mi NW 10.4 mph - N/A   Clear
5:24 PM 35.6 °F 27.5 °F 28.4 °F 75% 29.87 in 10.0 mi NW 11.5 mph - N/A   Clear
5:44 PM 33.8 °F 25.8 °F 26.6 °F 75% 29.89 in 10.0 mi NW 10.4 mph - N/A   Clear
6:04 PM 32.0 °F 24.2 °F 26.6 °F 80% 29.90 in 10.0 mi NW 9.2 mph - N/A   Clear
6:24 PM 30.2 °F 21.3 °F 26.6 °F 86% 29.91 in 10.0 mi NW 10.4 mph - N/A   Clear
6:44 PM 30.2 °F 20.8 °F 26.6 °F 86% 29.92 in 10.0 mi NW 11.5 mph - N/A   Clear
7:04 PM 30.2 °F 19.3 °F 26.6 °F 86% 29.93 in 10.0 mi NW 15.0 mph - N/A   Clear
7:24 PM 28.4 °F 18.0 °F 26.6 °F 93% 29.93 in 10.0 mi NW 12.7 mph 17.3 mph N/A   Clear
7:44 PM 28.4 °F 17.0 °F 26.6 °F 93% 29.94 in 7.0 mi NW 15.0 mph - N/A   Clear
8:04 PM 28.4 °F 17.0 °F 26.6 °F 93% 29.95 in 7.0 mi NW 15.0 mph - N/A   Clear
8:24 PM 30.2 °F 18.1 °F 26.6 °F 86% 29.96 in 7.0 mi NNW 18.4 mph 24.2 mph N/A   Mostly Cloudy
8:44 PM 30.2 °F 18.9 °F 26.6 °F 86% 29.97 in 10.0 mi NNW 16.1 mph 24.2 mph N/A   Overcast
9:04 PM 28.4 °F 15.8 °F 26.6 °F 93% 29.98 in 10.0 mi NNW 18.4 mph 24.2 mph N/A   Overcast
9:24 PM 28.4 °F 14.4 °F 24.8 °F 86% 29.99 in 10.0 mi NW 23.0 mph 28.8 mph N/A   Overcast
9:44 PM 28.4 °F 15.4 °F 24.8 °F 86% 30.01 in 10.0 mi NNW 19.6 mph 25.3 mph N/A   Overcast
10:04 PM 26.6 °F 13.1 °F 24.8 °F 93% 30.01 in 10.0 mi NNW 19.6 mph 26.5 mph N/A   Overcast
10:24 PM 26.6 °F 13.4 °F 23.0 °F 86% 30.03 in 10.0 mi NW 18.4 mph 26.5 mph N/A   Overcast
10:44 PM 26.6 °F 12.4 °F 23.0 °F 86% 30.04 in 10.0 mi NNW 21.9 mph - N/A   Overcast
11:04 PM 26.6 °F 12.0 °F 21.2 °F 80% 30.06 in 10.0 mi NW 23.0 mph 28.8 mph N/A   Overcast
11:24 PM 24.8 °F 9.6 °F 21.2 °F 86% 30.07 in 10.0 mi NW 23.0 mph 29.9 mph N/A   Overcast
11:44 PM 24.8 °F 10.3 °F 19.4 °F 80% 30.07 in 10.0 mi NNW 20.7 mph 31.1 mph N/A   Overcast